EHI
0 0 0 0 0 0 0 0 0 0 0 0 0 0 0 0 0 0 0 0 0 0 0 0 0 0 0 0 0 0 0 0 0 0 0 0 0 0 0 0 0 0 0 0
0 0 0 0 0 0 0 0 0 0 0 0 0 0 0 0 0 0 0 0 0 0 0 0 0 0 0 0 0 0 0 0 0 0 0 0 0 0 0 0 0 0 0 0
0 0 0 0 0 0 0 0 0 0 0 0 0 0 0 0 0 0 0 0 0 0 0 0 0 0 0 0 0 0 0 0 0 0 0 0 0 0 0 0 0 0 0 0
0 0 0 0 0 0 0 0 0 0 0 0 0 0 0 0 0 0 0 0 0 0 0 0 0 0 0 0 0 0 0 0 0 0 0 0 0 0 0 0 0 0 0 0
0 0 0 0 0 0 0 0 0 0 0 0 0 0 0 0 0 0 0 0 0 0 0 0 0 0 0 0 0 0 0 0 0 0 0 0 0 0 0 0 0 0 0 0
0 0 0 0 0 0 0 0 0 0 0 0 0 0 0 0 0 0 0 0 0 0 0 0 0 0 0 0 0 0 0 0 0 0 0 0 0 0 0 0 0 0 0 0
0 0 0 0 0 0 0 0 0 0 0 0 0 0 0 0 0 0 0 0 0 0 0 0 0 0 0 0 0 0 0 0 0 0 0 0 0 0 0 0 0 0 0 0
0 0 0 0 0 0 0 0 0 0 0 0 0 0 0 0 0 0 0 0 0 0 0 0 0 0 0 0 0 0 0 0 0 0 0 0 0 0 0 0 0 0 0 0
0 0 0 0 0 0 0 0 0 0 0 0 0 0 0 0 0 0 0 0 0 0 0 0 0 0 0 0 0 0 0 0 0 0 0 0 0 0 0 0 0 0 0 0
0 0 0 0 0 0 0 0 0 0 0 0 0 0 0 0 0 0 0 0 0 0 0 0 0 0 0 0 0 0 0 0 0 0 0 0 0 0 0 0 0 0 0 0
0 0 0 0 0 0 0 0 0 0 0 0 0 0 0 0 0 0 0 0 0 0 0 0 0 0 0 0 0 0 0 0 0 0 0 0 0 0 0 0 0 0 0 0
0 0 0 0 0 0 0 0 0 0 0 0 0 0 0 0 0 0 0 0 0 0 0 0 0 0 0 0 0 0 0 0 0 0 0 0 0 0 0 0 0 0 0 0
0 0 0 0 0 0 0 0 0 0 0 0 0 0 0 0 0 0 0 0 0 0 0 0 0 0 0 0 0 0 0 0 0 0 0 0 0 0 0 0 0 0 0 0
0 0 0 0 0 0 0 0 0 0 0 0 0 0 0 0 0 0 0 0 0 0 0 0 0 0 0 0 0 0 0 0 0 0 0 0 0 0 0 0 0 0 0 0
0 0 0 0 0 0 0 0 0 0 0 0 0 0 0 0 0 0 0 0 0 0 0 0 0 0 0 0 0 0 0 0 0 0 0 0 0 0 0 0 0 0 0 0
0 0 0 0 0 0 0 0 0 0 0 0 0 0 0 0 0 0 0 0 0 0 0 0 0 0 0 0 0 0 0 0 0 0 0 0 0 0 0 0 0 0 0 0
0 0 0 0 0 0 0 0 0 0 0 0 0 0 0 0 0 0 0 0 0 0 0 0 0 0 0 0 0 0 0 0 0 0 0 0 0 0 0 0 0 0 0 0
0 0 0 0 0 0 0 0 0 0 0 0 0 0 0 0 0 0 0 0 0 0 0 0 0 0 0 0 0 0 0 0 0 0 0 0 0 0 0 0 0 0 0 0
0 0 0 0 0 0 0 0 0 0 0 0 0 0 0 0 0 0 0 0 0 0 0 0 0 0 0 0 0 0 0 0 0 0 0 0 0 0 0 0 0 0 0 0
0 0 0 0 0 0 0 0 0 0 0 0 0 0 0 0 0 0 0 0 0 0 0 0 0 0 0 0 0 0 0 0 0 0 0 0 0 0 0 0 0 0 0 0
0 0 0 0 0 0 0 0 0 0 0 0 0 0 0 0 0 0 0 0 0 0 0 0 0 0 0 0 0 0 0 0 0 0 0 0 0 0 0 0 0 0 0 0
0 0 0 0 0 0 0 0 0 0 0 0 0 0 0 0 0 0 0 0 0 0 0 0 0 0 0 0 0 0 0 0 0 0 0 0 0 0 0 0 0 0 0 0
0 0 0 0 0 0 0 0 0 0 0 0 0 0 0 0 0 0 0 0 0 0 0 0 0 0 0 0 0 0 0 0 0 0 0 0 0 0 0 0 0 0 0 0
0 0 0 0 0 0 0 0 0 0 0 0 0 0 0 0 0 0 0 0 0 0 0 0 0 0 0 0 0 0 0 0 0 0 0 0 0 0 0 0 0 0 0 0
0 0 0 0 0 0 0 0 0 0 0 0 0 0 0 0 0 0 0 0 0 0 0 0 0 0 0 0 0 0 0 0 0 0 0 0 0 0 0 0 0 0 0 0
0 0 0 0 0 0 0 0 0 0 0 0 0 0 0 0 0 0 0 0 0 0 0 0 0 0 0 0 0 0 0 0 0 0 0 0 0 0 0 0 0 0 0 0
0 0 0 0 0 0 0 0 0 0 0 0 0 0 0 0 0 0 0 0 0 0 0 0 0 0 0 0 0 0 0 0 0 0 0 0 0 0 0 0 0 0 0 0
Wind_Speed
16 16 12 12 13 18 22 20 13 11 16 18 10 11 12 8 5 9 11 12 13 12 11 12 12 11 11 11 11 11 12 11 9 8 7 7 7 6 6 5 5 4 3 3
14 17 19 19 19 20 23 22 22 16 19 13 9 9 8 6 9 11 12 12 12 13 14 13 13 12 12 11 10 11 11 10 8 8 7 7 6 6 6 5 4 3 3 4
8 8 7 12 19 24 21 17 18 22 21 8 8 5 4 5 10 12 12 13 14 14 13 13 12 13 12 11 11 11 11 9 8 7 7 6 6 6 5 4 3 3 3 4
7 7 4 5 6 12 15 15 16 14 9 6 4 2 2 2 5 9 11 12 12 12 12 11 11 12 12 12 11 11 10 8 7 7 7 6 6 5 4 2 3 2 3 4
5 5 6 6 3 5 7 7 13 16 13 4 1 1 0 3 0 7 9 10 10 11 13 13 13 13 14 12 11 11 9 8 7 7 7 6 6 4 2 2 2 2 3 5
5 5 4 5 4 3 3 5 9 15 13 6 5 2 0 4 5 10 12 13 13 13 13 13 12 13 15 12 11 9 8 8 7 7 7 6 5 3 2 1 2 4 5 5
4 4 6 5 1 5 2 7 4 6 7 8 6 2 5 6 8 11 13 14 14 14 12 12 12 14 14 12 9 8 9 9 8 7 6 5 4 2 2 3 4 4 5 6
3 3 5 2 3 5 6 5 4 3 5 9 10 9 9 10 10 12 13 13 14 14 12 10 11 14 14 10 8 9 10 9 7 6 5 4 4 3 3 3 4 5 5 6
6 6 4 2 3 4 3 3 0 4 8 15 12 10 11 10 11 11 12 12 12 15 14 10 8 12 14 8 9 10 9 8 6 5 4 4 4 3 3 3 3 4 4 5
4 6 3 2 1 3 3 0 2 7 11 12 13 13 13 12 11 11 11 11 12 14 14 10 9 11 11 9 9 10 8 6 5 5 4 4 3 2 2 3 4 5 5 5
5 6 4 2 2 3 4 7 11 10 9 12 17 15 13 12 11 11 11 10 10 12 13 11 10 9 8 7 9 9 7 5 4 4 3 2 2 2 3 3 4 6 4 4
6 5 4 1 5 6 6 8 11 15 13 9 11 15 13 11 10 10 10 10 11 12 12 10 9 8 6 6 7 8 6 4 3 3 2 2 3 3 6 7 11 12 12 12
3 2 3 5 5 5 6 8 9 11 13 13 11 12 14 12 9 10 10 11 11 11 11 9 9 7 6 6 6 7 6 4 3 3 2 2 2 3 5 6 9 12 14 16
4 5 4 3 4 6 9 11 12 13 11 12 12 12 12 12 11 10 9 9 10 10 9 8 8 7 5 5 6 6 5 5 4 2 1 2 2 3 3 5 6 6 10 15
2 3 5 8 10 10 10 13 15 13 12 11 10 11 12 12 11 9 8 9 10 9 8 7 8 5 4 5 6 6 4 2 2 1 1 2 3 3 3 4 5 6 6 8
6 8 10 12 13 11 12 13 15 12 11 11 11 11 11 12 11 9 8 8 9 9 7 7 6 5 5 6 6 4 3 3 2 1 2 3 3 3 3 4 5 5 6 7
11 10 10 12 13 11 10 10 13 13 12 12 12 12 13 13 11 9 7 6 7 7 6 6 6 5 5 5 5 3 2 2 4 3 2 3 3 3 4 4 5 5 6 9
5 7 10 15 16 14 12 11 12 13 12 12 13 12 11 11 11 9 8 8 9 8 6 6 6 6 5 4 3 2 1 2 2 2 2 3 3 3 4 5 6 6 6 8
6 9 11 11 12 14 14 13 13 12 13 12 12 11 10 9 9 9 8 8 8 7 4 4 8 6 4 4 4 2 1 2 2 2 3 6 5 4 4 5 6 6 7 8
8 10 13 12 11 13 15 14 14 13 11 12 13 12 11 9 8 8 8 6 4 4 4 5 6 5 4 3 4 2 1 2 3 3 3 4 4 5 5 6 7 7 7 8
11 13 14 14 13 11 12 14 14 14 11 10 12 12 11 8 7 7 8 6 3 4 5 7 4 2 2 2 3 2 2 2 3 3 4 5 5 6 6 6 7 8 8 9
10 12 13 14 15 13 10 10 12 13 12 11 11 12 11 9 8 7 6 4 4 7 5 3 2 3 4 4 2 2 2 2 3 4 4 4 5 6 6 7 7 8 8 8
10 12 13 14 15 15 12 11 11 11 12 11 11 11 10 7 5 6 5 3 4 7 5 2 4 6 5 3 2 2 3 3 3 4 5 5 5 6 6 7 7 7 7 8
13 13 13 14 15 16 14 10 10 10 11 10 9 9 9 8 5 4 4 9 9 8 4 4 6 6 5 2 2 2 3 3 4 5 5 5 5 5 6 6 7 7 7 9
13 14 15 15 14 11 12 13 13 12 11 9 9 8 5 4 5 5 5 6 9 8 4 5 6 6 3 2 3 3 3 4 5 4 3 5 5 5 6 6 6 7 8 8
12 11 9 9 10 11 10 10 9 8 9 9 7 5 5 6 7 6 5 6 6 6 4 2 3 4 3 3 3 4 4 5 6 5 5 6 6 6 6 6 8 7 8 8
10 10 10 10 9 8 8 9 10 9 8 9 8 5 6 6 6 6 5 4 3 3 2 2 3 3 3 3 4 4 5 5 5 5 5 5 5 5 6 8 7 8 8 9
Wind_Direction
248 248 239 231 222 213 217 224 235 248 258 270 286 291 291 275 183 150 145 144 146 141 133 128 124 123 124 121 119 120 117 115 114 116 115 113 109 104 97 88 81 66 45 15
263 252 243 241 235 226 224 226 233 251 265 266 269 269 271 241 183 170 163 156 149 145 141 139 136 133 128 123 120 119 117 116 119 118 113 110 107 102 91 78 65 48 24 360
277 282 243 241 229 223 222 218 219 233 243 256 270 280 263 227 194 179 169 161 157 154 148 141 140 137 131 126 120 114 114 117 119 116 110 108 104 92 81 70 51 29 2 338
283 292 276 266 259 204 211 217 213 229 238 230 261 246 209 269 198 168 161 156 149 141 132 129 126 123 118 117 115 114 115 116 117 111 106 100 92 85 77 60 35 2 325 319
284 303 297 309 326 160 170 222 208 223 237 230 134 285 145 356 347 144 137 133 128 129 130 127 125 124 117 111 112 114 116 115 112 110 107 100 92 84 66 46 9 325 321 330
297 314 335 325 316 114 103 277 215 210 225 189 151 246 301 28 64 99 111 116 118 119 120 119 122 120 115 116 117 117 114 107 102 104 106 104 100 83 57 28 343 337 330 322
253 282 286 291 303 109 160 270 320 196 186 151 168 142 94 79 79 94 104 111 115 115 114 119 121 116 114 114 112 111 106 100 96 99 104 106 98 81 45 16 359 344 321 315
212 261 281 332 123 182 239 303 347 78 110 112 105 98 93 87 89 95 102 106 112 110 106 105 113 114 110 107 107 105 102 100 98 97 98 97 85 57 32 14 351 333 320 314
202 223 248 257 239 277 279 261 294 106 120 124 116 109 105 99 98 98 104 106 107 109 103 91 92 110 111 110 111 106 102 103 105 97 79 73 65 39 14 357 340 322 313 313
272 273 276 287 322 2 2 48 106 118 126 121 117 121 117 113 108 105 103 103 107 105 101 91 84 94 108 115 112 110 109 108 102 91 72 47 33 19 356 337 323 315 314 315
268 276 291 292 99 83 76 86 94 90 95 118 124 123 120 114 110 107 102 94 95 101 102 101 99 97 103 113 114 110 107 104 96 87 76 43 9 343 329 296 294 316 308 302
233 243 209 247 122 127 121 115 117 114 103 101 119 120 115 108 106 106 101 99 99 102 107 108 107 103 105 113 116 116 110 103 96 87 59 34 358 333 327 323 327 332 333 332
227 75 97 99 103 104 111 112 111 113 120 116 111 116 116 110 106 105 104 108 111 115 117 115 110 105 106 108 107 107 111 109 90 68 38 4 340 324 318 324 328 334 339 337
147 129 125 145 129 115 113 107 98 93 97 106 109 107 105 104 104 104 106 110 116 118 117 115 109 104 105 106 102 99 93 83 76 51 7 322 303 298 298 311 321 320 330 333
157 178 147 127 115 116 120 119 110 105 102 96 97 104 108 111 110 109 113 118 116 113 113 113 110 109 109 104 97 91 83 70 72 20 321 300 297 299 300 304 306 309 312 322
110 99 118 130 135 137 138 132 125 121 116 111 107 104 105 108 110 112 116 124 123 124 126 119 113 114 107 97 93 85 65 37 44 343 310 303 302 305 307 307 306 310 315 319
135 140 148 152 152 148 145 137 131 129 123 120 119 117 115 112 109 105 98 95 102 108 113 115 112 106 99 99 101 95 64 4 350 341 314 309 306 306 307 305 305 307 308 314
164 159 162 159 153 144 130 120 121 123 123 126 126 122 121 121 119 115 110 103 95 84 81 96 103 99 100 107 105 94 49 339 322 319 322 317 312 310 307 307 307 306 305 311
131 135 137 138 140 136 129 125 122 120 124 128 123 117 110 109 114 116 113 109 109 104 94 105 115 100 91 97 106 71 25 344 338 339 330 325 329 313 307 307 304 301 306 313
117 123 123 118 117 125 125 124 123 123 125 124 118 114 111 111 116 113 101 88 83 115 124 111 101 95 87 85 98 64 28 2 348 337 323 315 312 311 310 309 309 309 312 312
125 126 125 121 114 113 122 127 128 126 123 121 121 122 119 113 109 108 106 96 81 107 109 109 100 105 111 96 72 57 33 5 343 326 315 314 311 307 304 305 312 314 313 312
124 125 123 122 119 115 112 114 119 120 116 111 111 116 117 113 104 89 81 104 120 114 97 93 102 118 110 88 60 34 18 354 331 318 307 303 305 303 307 312 312 309 307 307
123 124 124 124 122 116 106 105 111 115 116 119 123 124 121 117 114 116 113 110 108 111 103 95 102 98 78 60 33 13 354 333 315 305 303 299 302 306 306 305 303 304 305 305
125 124 122 121 119 115 111 106 102 102 103 102 105 114 118 111 85 70 109 125 118 105 85 83 78 70 60 44 7 343 323 307 294 286 290 301 303 298 296 298 301 302 302 302
127 128 130 129 122 118 119 115 106 103 100 96 91 83 78 92 111 109 94 98 107 96 65 47 44 43 41 359 337 318 302 291 289 294 295 293 290 291 294 296 297 299 299 297
130 128 124 118 121 127 128 123 118 117 115 108 95 84 88 92 98 96 89 86 89 92 78 43 19 14 355 333 316 301 288 292 304 305 292 291 291 294 296 297 297 295 293 292
111 114 111 107 107 112 116 118 121 122 123 122 114 105 103 100 97 95 93 89 85 75 51 24 4 344 327 313 300 288 281 283 290 292 289 285 285 287 291 292 292 293 293 293